Flag for West Bank Weather past 2 weeks in Tulkarm, West Bank

Now
64 °F

Passing clouds.


Feels Like: 64 °F
Forecast: 60 / 76 °F
Wind: 3 mph from North

Location: Ben Gurion International Airport

Current Time: May 4, 2015 at 3:03:06 AM

Latest Report: May 4, 2015 at 2:20 AM


Visibility: N/A

Pressure: 29.89 "Hg

Humidity: 68%

Dew point: 54 °F

Location of TulkarmLocation

Historic Weather in Tulkarm — Graph

°F

Tulkarm temperature yesterday

Maximum temperature yesterday: 75 °F (at 12:20 PM)
Minimum temperature yesterday: 64 °F (at 12:20 AM)
Average temperature yesterday: 68 °F

Past Weeks' High & Low Weather Summary

 TemperatureHumidityPressure
High91 °F (Apr 29, 4:50 PM)88% (Apr 19, 1:50 AM)30.24 "Hg (Apr 19, 1:50 AM)
Low50 °F (Apr 25, 4:20 AM)12% (Apr 20, 3:50 PM)29.83 "Hg (Apr 20, 9:50 PM)
Average68 °F58%29.99 "Hg
* Reported Apr 19 1:20 AM — May 4 1:50 AM, Tulkarm, Weather by CustomWeather, © 2015

Note: Actual official high and low records may vary slightly from our data, if they occured in-between our weather recording intervals... More about our weather records

Advertising

Tulkarm weather history for previous 24 hours

 ConditionsComfort  
Time TempWeatherWind HumidityBarometerVisibility
1:50 AM
Mon, May 4
64 °FPassing clouds.3 mph68%29.92 "HgN/A
1:20 AM64 °FPassing clouds.2 mph73%29.92 "HgN/A
12:50 AM64 °FPassing clouds.3 mph73%29.92 "HgN/A
12:20 AM64 °FPassing clouds.6 mph68%29.92 "HgN/A
11:50 PM
Sun, May 3
66 °FPassing clouds.3 mph68%29.92 "HgN/A
11:20 PM66 °FPassing clouds.5 mph68%29.92 "HgN/A
10:50 PM66 °FPassing clouds.5 mph68%29.95 "HgN/A
10:20 PM64 °FPassing clouds.6 mph73%29.95 "HgN/A
9:50 PM66 °FPassing clouds.5 mph68%29.95 "HgN/A
9:20 PM66 °FPassing clouds.5 mph68%29.95 "HgN/A
8:50 PM66 °FPassing clouds.6 mph68%29.92 "HgN/A
8:20 PM66 °FScattered clouds.9 mph68%29.92 "HgN/A
7:50 PM66 °FScattered clouds.9 mph68%29.92 "HgN/A
7:20 PM66 °FScattered clouds.10 mph68%29.89 "HgN/A
6:50 PM68 °FScattered clouds.13 mph69%29.89 "HgN/A
6:20 PM68 °FPassing clouds.13 mph69%29.89 "HgN/A
5:50 PM70 °FPassing clouds.14 mph64%29.89 "HgN/A
5:20 PM70 °FPassing clouds.15 mph64%29.89 "HgN/A
4:50 PM72 °FSunny.16 mph61%29.89 "Hg10 mi
4:20 PM72 °FSunny.15 mph57%29.89 "Hg10 mi
3:50 PM72 °FSunny.16 mph57%29.89 "Hg10 mi
3:20 PM73 °FSunny.13 mph53%29.89 "Hg10 mi
2:50 PM73 °FSunny.13 mph57%29.89 "Hg10 mi
2:20 PM73 °FSunny.14 mph57%29.92 "Hg10 mi
1:50 PM73 °FSunny.14 mph57%29.92 "Hg10 mi
1:20 PM75 °FPassing clouds.14 mph54%29.92 "HgN/A
12:50 PM75 °FPassing clouds.13 mph54%29.92 "HgN/A
12:20 PM75 °FPassing clouds.8 mph50%29.92 "HgN/A
11:50 AM73 °FPassing clouds.9 mph53%29.95 "HgN/A
11:20 AM73 °FPassing clouds.5 mph53%29.95 "HgN/A
10:50 AM73 °FPassing clouds.2 mph53%29.95 "HgN/A
10:20 AM72 °FSunny.3 mph57%29.95 "Hg10 mi
9:50 AM70 °FPassing clouds.7 mph60%29.95 "HgN/A
9:20 AM68 °FScattered clouds.10 mph60%29.98 "HgN/A
8:50 AM68 °FScattered clouds.7 mph60%29.98 "HgN/A
8:20 AM66 °FPartly sunny.8 mph64%29.98 "HgN/A
7:50 AM66 °FPartly sunny.1 mph64%29.98 "HgN/A
7:20 AM64 °FPartly sunny.3 mph68%29.98 "HgN/A
6:50 AM64 °FPassing clouds.3 mph68%29.98 "HgN/A
6:20 AM64 °FPassing clouds.3 mph68%29.95 "HgN/A
5:20 AM64 °FPassing clouds.3 mph68%29.95 "HgN/A
4:50 AM64 °FPassing clouds.5 mph68%29.95 "HgN/A
4:20 AM64 °FPassing clouds.6 mph68%29.95 "HgN/A
3:50 AM64 °FPassing clouds.5 mph68%29.95 "HgN/A
3:20 AM64 °FPassing clouds.5 mph73%29.95 "HgN/A
Weather by CustomWeather, © 2015

See weather overviewHow to use our weather pages